BON327 FAOR-FSIA

Flight info

Callsign BON327
Flight time N/A
Altitude 37000
Route EGMEN1D EGMEN UQ2 EPSEK UM307 ENDEL/N0473F390 UM307 NESAM/N0476F380 UM307 OKLAB/N0474F390
Aircraft A346/H-SDE2E3FGHIJ3J4J5M1RWXY/LB1D1

Departure

Time N/A
Airport O.R. Tambo International Airport (FAOR)

Arrival

Time 2026-05-08 15:54
Airport Seychelles International Airport (FSIA)
Time Latitude Longitude Altitude Speed Heading
2026-05-08 12:22 -20.84814 33.87597 37004 ft 503 kts 31°
2026-05-08 12:22 -20.79385 33.92345 37003 ft 503 kts 31°
2026-05-08 12:23 -20.73956 33.97093 37001 ft 503 kts 31°
2026-05-08 12:23 -20.68604 34.01941 36995 ft 506 kts 33°
2026-05-08 12:24 -20.63372 34.06933 36994 ft 506 kts 34°
2026-05-08 12:24 -20.58123 34.11948 36992 ft 506 kts 34°
2026-05-08 12:25 -20.52867 34.16962 36978 ft 505 kts 34°
2026-05-08 12:25 -20.47623 34.21954 36976 ft 505 kts 33°
2026-05-08 12:26 -20.42370 34.26948 36975 ft 505 kts 34°
2026-05-08 12:26 -20.37153 34.31906 36975 ft 504 kts 34°
2026-05-08 12:27 -20.31904 34.36888 36975 ft 505 kts 34°
2026-05-08 12:27 -20.26642 34.41878 36968 ft 504 kts 34°
2026-05-08 12:28 -20.21417 34.46826 36966 ft 504 kts 33°
2026-05-08 12:28 -20.16154 34.51805 36966 ft 504 kts 33°
2026-05-08 12:29 -20.10888 34.56783 36966 ft 504 kts 33°
2026-05-08 12:29 -20.05635 34.61746 36966 ft 504 kts 33°
2026-05-08 12:30 -20.00373 34.66712 36965 ft 505 kts 34°
2026-05-08 12:30 -19.95101 34.71681 36959 ft 503 kts 34°
2026-05-08 12:31 -19.89860 34.76624 36957 ft 503 kts 34°
2026-05-08 12:31 -19.84648 34.81534 36959 ft 502 kts 34°
2026-05-08 12:32 -19.79600 34.86740 36956 ft 508 kts 40°
2026-05-08 12:32 -19.75076 34.92589 36958 ft 514 kts 48°
2026-05-08 12:33 -19.70987 34.98820 36956 ft 515 kts 50°
2026-05-08 12:33 -19.66909 35.05095 36956 ft 515 kts 49°
2026-05-08 12:34 -19.62810 35.11367 36956 ft 515 kts 49°
2026-05-08 12:34 -19.58734 35.17581 36958 ft 514 kts 49°
2026-05-08 12:35 -19.54630 35.23825 36959 ft 514 kts 49°
2026-05-08 12:35 -19.50539 35.30043 36956 ft 514 kts 49°
2026-05-08 12:36 -19.46462 35.36232 36958 ft 513 kts 49°
2026-05-08 12:36 -19.42367 35.42443 36956 ft 513 kts 49°
2026-05-08 12:37 -19.38263 35.48660 36956 ft 514 kts 49°
2026-05-08 12:37 -19.34160 35.54872 36957 ft 514 kts 49°
2026-05-08 12:38 -19.30057 35.61075 36956 ft 513 kts 50°
2026-05-08 12:38 -19.25952 35.67278 36957 ft 513 kts 49°
2026-05-08 12:39 -19.21872 35.73437 36958 ft 512 kts 49°
2026-05-08 12:39 -19.17767 35.79626 36956 ft 512 kts 49°
2026-05-08 12:40 -19.13668 35.85798 36956 ft 512 kts 50°
2026-05-08 12:40 -19.09584 35.91947 36957 ft 512 kts 50°
2026-05-08 12:41 -19.05476 35.98120 36957 ft 511 kts 50°
2026-05-08 12:41 -19.01402 36.04224 36955 ft 510 kts 50°
2026-05-08 12:42 -18.97306 36.10364 36956 ft 510 kts 50°
2026-05-08 12:42 -18.93217 36.16491 36956 ft 509 kts 50°
2026-05-08 12:43 -18.89137 36.22601 36951 ft 509 kts 50°
2026-05-08 12:43 -18.85069 36.28684 36948 ft 508 kts 50°
2026-05-08 12:44 -18.80983 36.34794 36948 ft 508 kts 50°
2026-05-08 12:44 -18.77581 36.39852 36947 ft 507 kts 50°
2026-05-08 12:45 -18.72737 36.46927 36947 ft 507 kts 50°
2026-05-08 12:45 -18.69298 36.51939 36947 ft 507 kts 50°
2026-05-08 12:46 -18.65161 36.57974 36948 ft 507 kts 50°
2026-05-08 12:46 -18.61042 36.63979 36941 ft 506 kts 50°
2026-05-08 12:47 -18.56909 36.70003 36938 ft 506 kts 50°
2026-05-08 12:47 -18.52769 36.76031 36938 ft 506 kts 50°
2026-05-08 12:48 -18.48631 36.82048 36938 ft 505 kts 50°
2026-05-08 12:48 -18.44528 36.88012 36938 ft 505 kts 50°
2026-05-08 12:49 -18.40388 36.94022 36938 ft 506 kts 50°
2026-05-08 12:49 -18.36249 37.00024 36939 ft 505 kts 50°
2026-05-08 12:50 -18.32133 37.05991 36939 ft 505 kts 50°
2026-05-08 12:50 -18.27991 37.11987 36938 ft 505 kts 50°
2026-05-08 12:51 -18.21778 37.20970 36938 ft 505 kts 50°
2026-05-08 12:52 -18.17640 37.26949 36939 ft 505 kts 50°
2026-05-08 12:52 -18.11434 37.35902 36938 ft 504 kts 50°
2026-05-08 12:53 -18.07321 37.41829 36938 ft 504 kts 50°
2026-05-08 12:53 -18.03180 37.47794 36939 ft 504 kts 50°
2026-05-08 12:54 -17.99048 37.53739 36938 ft 503 kts 50°
2026-05-08 12:54 -17.94906 37.59691 36938 ft 503 kts 50°
2026-05-08 12:55 -17.90805 37.65586 36938 ft 502 kts 50°
2026-05-08 12:55 -17.86671 37.71529 36936 ft 503 kts 51°
2026-05-08 12:56 -17.82747 37.77639 36938 ft 504 kts 53°
2026-05-08 12:56 -17.78891 37.83750 36944 ft 504 kts 53°
2026-05-08 12:57 -17.75002 37.89903 36947 ft 504 kts 53°
2026-05-08 12:57 -17.71110 37.96049 36947 ft 504 kts 53°
2026-05-08 12:58 -17.67226 38.02175 36947 ft 504 kts 53°
2026-05-08 12:58 -17.63363 38.08259 36947 ft 504 kts 53°
2026-05-08 12:59 -17.59465 38.14395 36947 ft 504 kts 53°
2026-05-08 12:59 -17.55594 38.20484 36952 ft 503 kts 53°
2026-05-08 13:00 -17.51708 38.26590 36956 ft 503 kts 53°
2026-05-08 13:00 -17.47820 38.32692 36956 ft 503 kts 53°
2026-05-08 13:01 -17.43925 38.38800 36957 ft 502 kts 53°
2026-05-08 13:01 -17.40027 38.44911 36956 ft 502 kts 53°
2026-05-08 13:02 -17.36134 38.51008 36956 ft 502 kts 53°
2026-05-08 13:02 -17.32244 38.57097 36962 ft 501 kts 54°
2026-05-08 13:03 -17.28379 38.63141 36965 ft 501 kts 54°
2026-05-08 13:03 -17.24532 38.69227 36968 ft 501 kts 54°
2026-05-08 13:04 -17.20682 38.75335 36965 ft 501 kts 54°
2026-05-08 13:04 -17.16814 38.81461 36966 ft 500 kts 54°
2026-05-08 13:05 -17.12968 38.87544 36966 ft 500 kts 54°
2026-05-08 13:05 -17.09137 38.93599 36965 ft 500 kts 54°
2026-05-08 13:06 -17.05262 38.99718 36972 ft 500 kts 54°
2026-05-08 13:06 -17.01418 39.05781 36974 ft 500 kts 54°
2026-05-08 13:07 -16.97552 39.11876 36974 ft 500 kts 54°
2026-05-08 13:07 -16.93712 39.17921 36976 ft 500 kts 54°
2026-05-08 13:08 -16.89849 39.24001 36978 ft 500 kts 55°
2026-05-08 13:08 -16.85976 39.30090 36972 ft 499 kts 55°
2026-05-08 13:09 -16.82103 39.36174 36967 ft 499 kts 55°
2026-05-08 13:09 -16.78270 39.42192 36966 ft 499 kts 55°
2026-05-08 13:10 -16.74417 39.48237 36965 ft 499 kts 55°
2026-05-08 13:10 -16.70551 39.54275 36967 ft 498 kts 54°
2026-05-08 13:11 -16.66697 39.60244 36970 ft 498 kts 54°
2026-05-08 13:11 -16.62814 39.66253 36974 ft 498 kts 55°
2026-05-08 13:12 -16.58935 39.72256 36974 ft 498 kts 55°
2026-05-08 13:12 -16.55056 39.78257 36975 ft 498 kts 55°
2026-05-08 13:13 -16.51177 39.84255 36978 ft 498 kts 55°
2026-05-08 13:13 -16.47322 39.90208 36974 ft 497 kts 55°
2026-05-08 13:14 -16.43439 39.96203 36977 ft 497 kts 55°
2026-05-08 13:14 -16.39563 40.02180 36974 ft 497 kts 55°
2026-05-08 13:15 -16.35684 40.08158 36975 ft 497 kts 55°
2026-05-08 13:15 -16.31801 40.14136 36974 ft 497 kts 55°
2026-05-08 13:16 -16.27944 40.20070 36974 ft 497 kts 55°
2026-05-08 13:16 -16.24062 40.26038 36977 ft 497 kts 55°
2026-05-08 13:17 -16.20176 40.32005 36975 ft 497 kts 55°
2026-05-08 13:17 -16.16295 40.37962 36976 ft 497 kts 55°
2026-05-08 13:18 -16.12429 40.43889 36974 ft 497 kts 55°
2026-05-08 13:18 -16.08540 40.49846 36977 ft 497 kts 55°
2026-05-08 13:19 -16.04648 40.55806 36974 ft 497 kts 55°
2026-05-08 13:19 -16.00744 40.61775 36976 ft 498 kts 55°
2026-05-08 13:20 -15.96871 40.67691 36975 ft 496 kts 55°
2026-05-08 13:20 -15.92981 40.73632 36974 ft 495 kts 55°
2026-05-08 13:21 -15.89097 40.79559 36967 ft 495 kts 55°
2026-05-08 13:21 -15.85220 40.85471 36968 ft 495 kts 55°
2026-05-08 13:22 -15.81336 40.91388 36965 ft 495 kts 56°
2026-05-08 13:22 -15.77447 40.97309 36966 ft 495 kts 56°
2026-05-08 13:23 -15.73559 41.03222 36965 ft 495 kts 56°
2026-05-08 13:23 -15.69669 41.09134 36960 ft 495 kts 56°
2026-05-08 13:24 -15.65804 41.15003 36958 ft 495 kts 56°
2026-05-08 13:24 -15.61903 41.20924 36957 ft 496 kts 56°
2026-05-08 13:25 -15.58004 41.26835 36957 ft 495 kts 56°
2026-05-08 13:25 -15.54129 41.32706 36956 ft 495 kts 56°
2026-05-08 13:26 -15.50228 41.38611 36956 ft 495 kts 56°
2026-05-08 13:26 -15.46321 41.44521 36957 ft 495 kts 56°
2026-05-08 13:27 -15.42414 41.50426 36956 ft 495 kts 56°
2026-05-08 13:27 -15.38509 41.56324 36956 ft 495 kts 56°
2026-05-08 13:28 -15.34626 41.62184 36956 ft 495 kts 56°
2026-05-08 13:28 -15.30725 41.68068 36956 ft 495 kts 56°
2026-05-08 13:29 -15.26818 41.73955 36957 ft 494 kts 56°
2026-05-08 13:29 -15.22914 41.79833 36956 ft 494 kts 56°
2026-05-08 13:30 -15.19677 41.84704 36956 ft 494 kts 56°
2026-05-08 13:30 -15.15143 41.91520 36957 ft 493 kts 56°
2026-05-08 13:31 -15.11876 41.96429 36956 ft 493 kts 56°
2026-05-08 13:31 -15.08006 42.02238 36958 ft 492 kts 56°
2026-05-08 13:32 -15.04115 42.08076 36959 ft 492 kts 56°
2026-05-08 13:32 -15.00223 42.13911 36957 ft 491 kts 56°
2026-05-08 13:33 -14.96336 42.19734 36956 ft 491 kts 56°
2026-05-08 13:33 -14.92455 42.25543 36957 ft 490 kts 56°
2026-05-08 13:34 -14.88574 42.31349 36957 ft 489 kts 56°
2026-05-08 13:34 -14.84702 42.37135 36956 ft 489 kts 56°
2026-05-08 13:35 -14.80853 42.42886 36956 ft 489 kts 56°
2026-05-08 13:35 -14.76979 42.48668 36957 ft 488 kts 56°
2026-05-08 13:36 -14.73101 42.54452 36957 ft 488 kts 56°
2026-05-08 13:36 -14.69255 42.60184 36956 ft 488 kts 55°
2026-05-08 13:37 -14.65385 42.65950 36956 ft 488 kts 56°
2026-05-08 13:37 -14.61499 42.71735 36956 ft 488 kts 56°
2026-05-08 13:38 -14.57652 42.77461 36957 ft 488 kts 56°
2026-05-08 13:38 -14.53774 42.83219 36956 ft 487 kts 55°
2026-05-08 13:39 -14.49819 42.88907 36957 ft 487 kts 54°
2026-05-08 13:39 -14.45844 42.94580 36950 ft 487 kts 54°
2026-05-08 13:40 -14.41900 43.00221 36949 ft 487 kts 54°
2026-05-08 13:40 -14.37932 43.05899 36947 ft 486 kts 54°
2026-05-08 13:41 -14.33972 43.11566 36948 ft 486 kts 54°
2026-05-08 13:41 -14.30011 43.17231 36947 ft 486 kts 54°
2026-05-08 13:42 -14.26048 43.22894 36947 ft 486 kts 54°
2026-05-08 13:42 -14.22111 43.28516 36947 ft 486 kts 54°
2026-05-08 13:43 -14.18142 43.34182 36940 ft 486 kts 54°
2026-05-08 13:43 -14.14172 43.39845 36938 ft 486 kts 54°
2026-05-08 13:44 -14.10228 43.45466 36939 ft 486 kts 54°
2026-05-08 13:44 -14.06262 43.51116 36938 ft 485 kts 54°
2026-05-08 13:45 -14.02302 43.56752 36938 ft 484 kts 54°
2026-05-08 13:45 -13.98350 43.62373 36938 ft 484 kts 54°
2026-05-08 13:46 -13.94396 43.67994 36938 ft 484 kts 54°
2026-05-08 13:46 -13.90459 43.73587 36939 ft 484 kts 54°
2026-05-08 13:47 -13.86506 43.79199 36938 ft 484 kts 54°
2026-05-08 13:47 -13.82544 43.84820 36938 ft 484 kts 54°
2026-05-08 13:48 -13.78577 43.90444 36939 ft 484 kts 54°
2026-05-08 13:48 -13.74644 43.96016 36938 ft 484 kts 54°
2026-05-08 13:49 -13.70685 44.01622 36938 ft 484 kts 54°
2026-05-08 13:49 -13.66721 44.07231 36938 ft 484 kts 54°
2026-05-08 13:50 -13.62754 44.12840 36938 ft 484 kts 54°
2026-05-08 13:50 -13.58786 44.18449 36937 ft 484 kts 54°
2026-05-08 13:51 -13.54837 44.24026 36938 ft 484 kts 54°
2026-05-08 13:51 -13.50844 44.29662 36939 ft 484 kts 54°
2026-05-08 13:52 -13.46898 44.35228 36938 ft 484 kts 54°
2026-05-08 13:52 -13.42927 44.40829 36938 ft 484 kts 54°
2026-05-08 13:53 -13.38959 44.46421 36939 ft 484 kts 54°
2026-05-08 13:53 -13.35007 44.51992 36937 ft 483 kts 54°
2026-05-08 13:54 -13.31053 44.57589 36938 ft 483 kts 54°
2026-05-08 13:54 -13.27098 44.63190 36938 ft 483 kts 54°
2026-05-08 13:55 -13.23150 44.68779 36938 ft 483 kts 54°
2026-05-08 13:56 -13.17242 44.77135 36938 ft 483 kts 54°
2026-05-08 13:56 -13.13282 44.82731 36938 ft 483 kts 54°
2026-05-08 13:57 -13.09358 44.88273 36938 ft 482 kts 54°
2026-05-08 13:57 -13.05402 44.93856 36936 ft 483 kts 54°
2026-05-08 13:58 -13.01442 44.99442 36935 ft 483 kts 54°
2026-05-08 13:58 -12.97491 45.05014 36927 ft 483 kts 54°
2026-05-08 13:59 -12.93529 45.10596 36915 ft 482 kts 54°
2026-05-08 13:59 -12.89574 45.16166 36929 ft 482 kts 54°
2026-05-08 14:00 -12.85644 45.21699 36928 ft 483 kts 54°
2026-05-08 14:00 -12.81699 45.27289 36928 ft 482 kts 56°
2026-05-08 14:01 -12.78129 45.33115 36930 ft 482 kts 60°
2026-05-08 14:01 -12.74678 45.39013 36929 ft 481 kts 60°
2026-05-08 14:02 -12.71245 45.44875 36929 ft 482 kts 60°
2026-05-08 14:02 -12.67782 45.50781 36929 ft 482 kts 60°
2026-05-08 14:03 -12.64327 45.56667 36929 ft 482 kts 60°
2026-05-08 14:03 -12.60869 45.62552 36929 ft 482 kts 60°
2026-05-08 14:04 -12.57432 45.68398 36929 ft 481 kts 60°
2026-05-08 14:04 -12.53955 45.74308 36929 ft 481 kts 60°
2026-05-08 14:05 -12.50515 45.80151 36928 ft 482 kts 60°
2026-05-08 14:05 -12.47046 45.86041 36929 ft 481 kts 60°
2026-05-08 14:06 -12.43583 45.91918 36930 ft 481 kts 60°
2026-05-08 14:06 -12.40104 45.97821 37062 ft 486 kts 60°
2026-05-08 14:06 -12.38360 46.00779 37412 ft 484 kts 60°
2026-05-08 14:07 -12.36618 46.03730 37794 ft 482 kts 60°
2026-05-08 14:07 -12.34897 46.06643 38121 ft 481 kts 60°
2026-05-08 14:07 -12.33111 46.09545 38396 ft 481 kts 57°
2026-05-08 14:07 -12.31179 46.12347 38639 ft 482 kts 54°
2026-05-08 14:08 -12.29097 46.15043 38878 ft 482 kts 51°
2026-05-08 14:08 -12.24536 46.20100 38934 ft 483 kts 47°
2026-05-08 14:09 -12.19858 46.24989 38931 ft 483 kts 47°
2026-05-08 14:09 -12.15155 46.29911 38929 ft 483 kts 47°
2026-05-08 14:10 -12.10450 46.34842 38933 ft 483 kts 47°
2026-05-08 14:10 -12.05757 46.39760 38927 ft 483 kts 47°
2026-05-08 14:11 -12.01063 46.44679 38933 ft 483 kts 47°
2026-05-08 14:11 -11.96389 46.49574 38932 ft 482 kts 47°
2026-05-08 14:12 -11.91697 46.54485 38932 ft 482 kts 47°
2026-05-08 14:12 -11.87011 46.59388 38932 ft 482 kts 47°
2026-05-08 14:13 -11.82324 46.64291 38932 ft 481 kts 47°
2026-05-08 14:13 -11.77669 46.69156 38932 ft 481 kts 47°
2026-05-08 14:14 -11.72982 46.74053 38930 ft 481 kts 47°
2026-05-08 14:14 -11.68306 46.78936 38933 ft 480 kts 47°
2026-05-08 14:15 -11.63630 46.83815 38929 ft 480 kts 47°
2026-05-08 14:15 -11.58957 46.88689 38933 ft 480 kts 47°
2026-05-08 14:16 -11.55076 46.92735 38931 ft 479 kts 47°
2026-05-08 14:16 -11.50409 46.97599 38936 ft 479 kts 47°
2026-05-08 14:17 -11.45741 47.02461 38934 ft 479 kts 47°
2026-05-08 14:17 -11.41072 47.07322 38938 ft 479 kts 47°
2026-05-08 14:18 -11.36408 47.12175 38935 ft 479 kts 47°
2026-05-08 14:18 -11.31762 47.17008 38938 ft 478 kts 47°
2026-05-08 14:19 -11.27097 47.21858 38936 ft 478 kts 47°
2026-05-08 14:19 -11.22434 47.26703 38931 ft 478 kts 47°
2026-05-08 14:20 -11.17772 47.31545 38915 ft 478 kts 47°
2026-05-08 14:20 -11.13136 47.36356 38916 ft 478 kts 47°
2026-05-08 14:21 -11.08472 47.41197 38914 ft 478 kts 47°
2026-05-08 14:21 -11.03794 47.46050 38912 ft 478 kts 47°
2026-05-08 14:22 -10.99127 47.50891 38930 ft 478 kts 47°
2026-05-08 14:22 -10.94482 47.55705 38915 ft 478 kts 47°
2026-05-08 14:23 -10.89807 47.60544 38928 ft 478 kts 47°
2026-05-08 14:23 -10.85140 47.65372 38916 ft 478 kts 47°
2026-05-08 14:24 -10.80489 47.70183 38930 ft 478 kts 47°
2026-05-08 14:24 -10.75817 47.75016 38920 ft 478 kts 47°
2026-05-08 14:25 -10.71139 47.79854 38927 ft 479 kts 47°
2026-05-08 14:25 -10.66468 47.84684 38913 ft 479 kts 47°
2026-05-08 14:26 -10.61785 47.89523 38932 ft 479 kts 47°
2026-05-08 14:26 -10.57143 47.94318 38914 ft 479 kts 47°
2026-05-08 14:27 -10.52468 47.99144 38932 ft 479 kts 47°
2026-05-08 14:27 -10.47781 48.03981 38910 ft 479 kts 47°
2026-05-08 14:28 -10.43124 48.08784 38910 ft 479 kts 47°
2026-05-08 14:28 -10.38436 48.13617 38911 ft 479 kts 47°
2026-05-08 14:29 -10.33755 48.18441 38912 ft 479 kts 47°
2026-05-08 14:29 -10.29090 48.23247 38908 ft 479 kts 47°
2026-05-08 14:30 -10.24407 48.28068 38908 ft 479 kts 47°
2026-05-08 14:30 -10.19724 48.32889 38909 ft 479 kts 47°
2026-05-08 14:31 -10.15036 48.37713 38910 ft 479 kts 47°
2026-05-08 14:31 -10.10380 48.42502 38911 ft 479 kts 47°
2026-05-08 14:32 -10.03342 48.49740 38912 ft 479 kts 46°
2026-05-08 14:32 -9.98851 48.54682 38908 ft 478 kts 52°
2026-05-08 14:33 -9.94716 48.59981 38912 ft 478 kts 53°
2026-05-08 14:33 -9.90617 48.65307 38910 ft 478 kts 53°
2026-05-08 14:34 -9.86514 48.70630 38908 ft 478 kts 53°
2026-05-08 14:34 -9.82440 48.75909 38908 ft 478 kts 53°
2026-05-08 14:35 -9.78332 48.81228 38908 ft 478 kts 53°
2026-05-08 14:35 -9.74225 48.86543 38908 ft 477 kts 53°
2026-05-08 14:36 -9.70146 48.91817 38911 ft 478 kts 53°
2026-05-08 14:36 -9.66041 48.97125 38910 ft 478 kts 52°
2026-05-08 14:37 -9.61918 49.02452 38910 ft 478 kts 52°
2026-05-08 14:37 -9.57808 49.07761 38908 ft 478 kts 52°
2026-05-08 14:38 -9.53718 49.13040 38908 ft 478 kts 52°
2026-05-08 14:38 -9.49624 49.18323 38910 ft 478 kts 52°
2026-05-08 14:39 -9.45514 49.23627 38908 ft 478 kts 52°
2026-05-08 14:39 -9.41404 49.28925 38910 ft 478 kts 52°
2026-05-08 14:40 -9.37294 49.34221 38918 ft 478 kts 52°
2026-05-08 14:40 -9.33180 49.39521 38921 ft 478 kts 52°
2026-05-08 14:41 -9.29086 49.44793 38916 ft 478 kts 52°
2026-05-08 14:41 -9.24976 49.50085 38911 ft 477 kts 52°
2026-05-08 14:42 -9.20859 49.55380 38911 ft 477 kts 52°
2026-05-08 14:42 -9.16742 49.60675 38910 ft 477 kts 52°
2026-05-08 14:43 -9.12654 49.65930 38910 ft 477 kts 52°
2026-05-08 14:43 -9.08544 49.71212 38911 ft 477 kts 52°
2026-05-08 14:44 -9.04432 49.76494 38911 ft 477 kts 52°
2026-05-08 14:44 -9.00324 49.81768 38911 ft 477 kts 52°
2026-05-08 14:45 -8.96209 49.87049 38908 ft 476 kts 52°
2026-05-08 14:45 -8.92095 49.92327 38907 ft 476 kts 52°
2026-05-08 14:46 -8.87991 49.97590 38910 ft 476 kts 52°
2026-05-08 14:46 -8.83912 50.02820 38910 ft 476 kts 52°
2026-05-08 14:47 -8.79806 50.08084 38914 ft 476 kts 52°
2026-05-08 14:47 -8.75697 50.13344 38913 ft 476 kts 52°
2026-05-08 14:48 -8.71610 50.18576 38907 ft 476 kts 52°
2026-05-08 14:48 -8.67498 50.23838 38913 ft 476 kts 52°
2026-05-08 14:49 -8.63386 50.29099 38912 ft 476 kts 52°
2026-05-08 14:49 -8.59301 50.34323 38911 ft 475 kts 52°
2026-05-08 14:50 -8.55196 50.39570 38913 ft 475 kts 52°
2026-05-08 14:50 -8.51091 50.44816 38907 ft 475 kts 52°
2026-05-08 14:51 -8.46987 50.50058 38913 ft 475 kts 51°
2026-05-08 14:51 -8.42880 50.55303 38906 ft 475 kts 51°
2026-05-08 14:52 -8.36720 50.63164 38900 ft 475 kts 51°
2026-05-08 14:53 -8.32640 50.68369 38901 ft 475 kts 51°
2026-05-08 14:53 -8.28524 50.73618 38899 ft 476 kts 51°
2026-05-08 14:54 -8.24406 50.78867 38900 ft 476 kts 51°
2026-05-08 14:54 -8.20288 50.84114 38903 ft 476 kts 51°
2026-05-08 14:55 -8.16172 50.89357 38903 ft 476 kts 51°
2026-05-08 14:55 -8.12077 50.94571 38899 ft 476 kts 51°
2026-05-08 14:56 -8.07960 50.99811 38899 ft 476 kts 51°
2026-05-08 14:56 -8.03834 51.05060 38898 ft 476 kts 51°
2026-05-08 14:57 -7.99726 51.10285 38899 ft 476 kts 51°
2026-05-08 14:57 -7.95601 51.15531 38902 ft 475 kts 51°
2026-05-08 14:58 -7.91485 51.20761 38901 ft 475 kts 51°
2026-05-08 14:58 -7.87392 51.25962 38903 ft 475 kts 51°
2026-05-08 14:59 -7.83270 51.31197 38900 ft 475 kts 51°
2026-05-08 14:59 -7.77111 51.39015 38905 ft 475 kts 51°
2026-05-08 15:00 -7.72983 51.44253 38901 ft 475 kts 51°
2026-05-08 15:00 -7.68858 51.49485 38900 ft 475 kts 51°
2026-05-08 15:01 -7.64763 51.54678 38900 ft 475 kts 51°
2026-05-08 15:01 -7.60632 51.59916 38901 ft 476 kts 51°
2026-05-08 15:02 -7.57193 51.64273 38902 ft 476 kts 51°
2026-05-08 15:02 -7.53066 51.69501 38899 ft 476 kts 51°
2026-05-08 15:03 -7.48263 51.75583 38899 ft 476 kts 51°
2026-05-08 15:03 -7.44830 51.79928 38899 ft 476 kts 51°
2026-05-08 15:04 -7.40704 51.85150 38899 ft 475 kts 51°
2026-05-08 15:04 -7.36571 51.90379 38898 ft 475 kts 51°
2026-05-08 15:05 -7.32448 51.95594 38893 ft 475 kts 51°
2026-05-08 15:05 -7.28318 52.00815 38892 ft 475 kts 51°
2026-05-08 15:06 -7.24217 52.05998 38891 ft 475 kts 51°
2026-05-08 15:06 -7.20095 52.11207 38890 ft 474 kts 51°
2026-05-08 15:07 -7.15970 52.16416 38891 ft 474 kts 51°
2026-05-08 15:07 -7.11876 52.21585 38891 ft 474 kts 51°
2026-05-08 15:08 -7.07763 52.26777 38892 ft 473 kts 51°
2026-05-08 15:08 -7.03653 52.31964 38892 ft 473 kts 51°
2026-05-08 15:09 -6.99533 52.37161 38892 ft 473 kts 51°
2026-05-08 15:09 -6.95451 52.42307 38891 ft 472 kts 51°
2026-05-08 15:10 -6.91348 52.47480 38892 ft 472 kts 51°
2026-05-08 15:10 -6.87241 52.52659 38893 ft 471 kts 51°
2026-05-08 15:11 -6.83157 52.57798 38892 ft 469 kts 51°
2026-05-08 15:11 -6.79097 52.62913 38891 ft 469 kts 51°
2026-05-08 15:12 -6.75019 52.68050 38891 ft 469 kts 51°
2026-05-08 15:12 -6.70935 52.73191 38891 ft 469 kts 51°
2026-05-08 15:13 -6.66877 52.78299 38891 ft 469 kts 51°
2026-05-08 15:13 -6.62798 52.83431 38892 ft 469 kts 51°
2026-05-08 15:14 -6.58712 52.88570 38889 ft 469 kts 51°
2026-05-08 15:14 -6.54656 52.93671 38891 ft 468 kts 51°
2026-05-08 15:15 -6.50586 52.98790 38892 ft 468 kts 51°
2026-05-08 15:15 -6.46513 53.03911 38891 ft 468 kts 51°
2026-05-08 15:16 -6.42431 53.09042 38890 ft 468 kts 51°
2026-05-08 15:16 -6.38283 53.14107 38891 ft 468 kts 50°
2026-05-08 15:17 -6.34029 53.19078 38867 ft 468 kts 50°
2026-05-08 15:17 -6.31933 53.21527 38683 ft 467 kts 50°
2026-05-08 15:17 -6.29820 53.24003 38439 ft 465 kts 50°
2026-05-08 15:18 -6.27715 53.26475 38180 ft 463 kts 50°
2026-05-08 15:18 -6.25625 53.28933 37926 ft 460 kts 50°
2026-05-08 15:18 -6.23545 53.31379 37674 ft 458 kts 50°
2026-05-08 15:18 -6.21472 53.33817 37425 ft 457 kts 50°
2026-05-08 15:19 -6.19405 53.36250 37167 ft 457 kts 50°
2026-05-08 15:19 -6.17341 53.38678 36908 ft 457 kts 50°
2026-05-08 15:19 -6.15272 53.41112 36681 ft 457 kts 50°
2026-05-08 15:19 -6.13204 53.43545 36427 ft 457 kts 50°
2026-05-08 15:20 -6.11166 53.45943 36171 ft 457 kts 50°
2026-05-08 15:20 -6.09098 53.48374 35930 ft 457 kts 50°
2026-05-08 15:20 -6.07028 53.50809 35675 ft 458 kts 50°
2026-05-08 15:20 -6.04950 53.53252 35424 ft 460 kts 50°
2026-05-08 15:21 -6.02865 53.55703 35173 ft 462 kts 50°
2026-05-08 15:21 -6.00769 53.58168 34925 ft 463 kts 50°
2026-05-08 15:21 -5.98671 53.60633 34676 ft 465 kts 50°
2026-05-08 15:21 -5.96564 53.63109 34382 ft 466 kts 50°
2026-05-08 15:22 -5.94454 53.65589 34026 ft 466 kts 50°
2026-05-08 15:22 -5.92347 53.68071 33592 ft 466 kts 50°
2026-05-08 15:22 -5.90253 53.70536 33204 ft 461 kts 50°
2026-05-08 15:22 -5.88173 53.72982 32747 ft 458 kts 50°
2026-05-08 15:23 -5.86105 53.75414 32302 ft 455 kts 50°
2026-05-08 15:23 -5.84079 53.77795 31889 ft 451 kts 50°
2026-05-08 15:23 -5.82043 53.80187 31480 ft 447 kts 50°
2026-05-08 15:23 -5.80030 53.82551 31087 ft 443 kts 50°
2026-05-08 15:24 -5.78031 53.84900 30670 ft 440 kts 50°
2026-05-08 15:24 -5.76049 53.87227 30275 ft 436 kts 50°
2026-05-08 15:24 -5.74084 53.89534 29877 ft 432 kts 50°
2026-05-08 15:24 -5.72132 53.91826 29499 ft 429 kts 50°
2026-05-08 15:25 -5.70199 53.94095 29134 ft 425 kts 49°
2026-05-08 15:25 -5.68281 53.96346 28765 ft 421 kts 49°
2026-05-08 15:25 -5.66406 53.98548 28439 ft 417 kts 49°
2026-05-08 15:25 -5.64527 54.00751 28085 ft 413 kts 49°
2026-05-08 15:26 -5.62660 54.02942 27728 ft 410 kts 49°
2026-05-08 15:26 -5.60803 54.05119 27389 ft 407 kts 49°
2026-05-08 15:26 -5.58965 54.07276 27038 ft 405 kts 49°
2026-05-08 15:26 -5.57137 54.09419 26693 ft 402 kts 49°
2026-05-08 15:27 -5.55326 54.11542 26354 ft 399 kts 49°
2026-05-08 15:27 -5.53522 54.13657 26013 ft 397 kts 49°
2026-05-08 15:27 -5.51729 54.15760 25672 ft 394 kts 49°
2026-05-08 15:27 -5.49946 54.17848 25325 ft 392 kts 49°
2026-05-08 15:28 -5.48199 54.19895 24984 ft 390 kts 49°
2026-05-08 15:28 -5.46429 54.21971 24654 ft 388 kts 49°
2026-05-08 15:28 -5.44675 54.24024 24299 ft 386 kts 49°
2026-05-08 15:28 -5.42929 54.26070 23973 ft 383 kts 49°
2026-05-08 15:29 -5.41219 54.28073 23642 ft 381 kts 49°
2026-05-08 15:29 -5.39488 54.30100 23292 ft 379 kts 49°
2026-05-08 15:29 -5.37771 54.32111 22950 ft 377 kts 49°
2026-05-08 15:29 -5.36063 54.34111 22606 ft 375 kts 49°
2026-05-08 15:30 -5.34366 54.36097 22267 ft 373 kts 49°
2026-05-08 15:30 -5.32678 54.38072 21925 ft 371 kts 49°
2026-05-08 15:30 -5.31015 54.40018 21585 ft 370 kts 49°
2026-05-08 15:30 -5.29339 54.41980 21242 ft 368 kts 49°
2026-05-08 15:31 -5.27677 54.43926 20900 ft 366 kts 49°
2026-05-08 15:31 -5.26023 54.45863 20575 ft 364 kts 49°
2026-05-08 15:31 -5.24379 54.47787 20226 ft 362 kts 49°
2026-05-08 15:31 -5.22734 54.49713 19899 ft 368 kts 49°
2026-05-08 15:32 -5.21100 54.51624 19616 ft 362 kts 49°
2026-05-08 15:32 -5.19449 54.53554 19314 ft 356 kts 49°
2026-05-08 15:32 -5.17866 54.55403 19039 ft 350 kts 49°
2026-05-08 15:32 -5.16289 54.57247 18759 ft 344 kts 49°
2026-05-08 15:33 -5.14739 54.59060 18441 ft 340 kts 49°
2026-05-08 15:33 -5.13206 54.60853 18080 ft 337 kts 49°
2026-05-08 15:33 -5.11683 54.62633 17706 ft 334 kts 49°
2026-05-08 15:33 -5.10170 54.64401 17321 ft 332 kts 49°
2026-05-08 15:34 -5.08683 54.66140 16934 ft 331 kts 49°
2026-05-08 15:34 -5.07188 54.67888 16562 ft 329 kts 49°
2026-05-08 15:34 -5.05699 54.69628 16169 ft 327 kts 49°
2026-05-08 15:34 -5.04219 54.71360 15799 ft 325 kts 49°
2026-05-08 15:35 -5.02749 54.73078 15431 ft 323 kts 49°
2026-05-08 15:35 -5.01292 54.74780 15059 ft 321 kts 49°
2026-05-08 15:35 -4.99834 54.76484 14689 ft 319 kts 49°
2026-05-08 15:35 -4.98409 54.78150 14324 ft 317 kts 49°
2026-05-08 15:36 -4.96973 54.79830 13958 ft 316 kts 49°
2026-05-08 15:36 -4.96026 54.80937 13706 ft 314 kts 49°
2026-05-08 15:36 -4.94128 54.83154 13221 ft 312 kts 49°
2026-05-08 15:36 -4.92714 54.84807 12849 ft 310 kts 49°
2026-05-08 15:37 -4.91313 54.86443 12479 ft 309 kts 50°
2026-05-08 15:37 -4.89913 54.88077 12096 ft 307 kts 50°
2026-05-08 15:37 -4.88524 54.89700 11730 ft 305 kts 50°
2026-05-08 15:37 -4.87145 54.91311 11369 ft 304 kts 50°
2026-05-08 15:38 -4.85769 54.92916 10990 ft 302 kts 50°
2026-05-08 15:38 -4.84401 54.94512 10621 ft 301 kts 50°
2026-05-08 15:38 -4.83057 54.96082 10257 ft 299 kts 50°
2026-05-08 15:38 -4.81701 54.97664 9888 ft 297 kts 50°
2026-05-08 15:39 -4.81335 54.98092 9788 ft 297 kts 51°
2026-05-08 15:39 -4.80075 54.99563 9446 ft 296 kts 51°
2026-05-08 15:39 -4.78736 55.01128 9080 ft 294 kts 51°
2026-05-08 15:40 -4.77402 55.02684 8720 ft 293 kts 51°
2026-05-08 15:40 -4.76077 55.04233 8365 ft 291 kts 51°
2026-05-08 15:40 -4.74777 55.05749 8024 ft 289 kts 51°
2026-05-08 15:40 -4.73467 55.07279 7676 ft 287 kts 51°
2026-05-08 15:41 -4.72175 55.08789 7467 ft 280 kts 51°
2026-05-08 15:41 -4.70924 55.10248 7337 ft 271 kts 51°
2026-05-08 15:41 -4.69717 55.11657 7207 ft 262 kts 51°
2026-05-08 15:41 -4.68549 55.13021 7072 ft 253 kts 51°
2026-05-08 15:42 -4.67415 55.14347 6949 ft 250 kts 51°
2026-05-08 15:42 -4.66281 55.15675 6819 ft 250 kts 51°
2026-05-08 15:42 -4.65151 55.16995 6691 ft 249 kts 51°
2026-05-08 15:42 -4.64023 55.18311 6568 ft 248 kts 52°
2026-05-08 15:43 -4.62895 55.19628 6434 ft 248 kts 52°
2026-05-08 15:43 -4.61775 55.20935 6317 ft 247 kts 52°
2026-05-08 15:43 -4.60667 55.22228 6192 ft 247 kts 52°
2026-05-08 15:43 -4.59542 55.23540 6063 ft 246 kts 52°
2026-05-08 15:44 -4.58439 55.24826 5898 ft 240 kts 52°
2026-05-08 15:44 -4.57356 55.26089 5667 ft 237 kts 52°
2026-05-08 15:44 -4.56286 55.27338 5524 ft 236 kts 52°
2026-05-08 15:44 -4.55225 55.28575 5349 ft 230 kts 52°
2026-05-08 15:45 -4.54053 55.29649 5145 ft 227 kts 33°
2026-05-08 15:45 -4.52615 55.30253 4991 ft 220 kts 20°
2026-05-08 15:45 -4.51204 55.30739 4858 ft 209 kts 24°
2026-05-08 15:45 -4.49928 55.31368 4719 ft 200 kts 34°
2026-05-08 15:46 -4.48802 55.32181 4599 ft 199 kts 44°
2026-05-08 15:46 -4.47847 55.33153 4494 ft 197 kts 53°
2026-05-08 15:46 -4.47062 55.34271 4375 ft 195 kts 63°
2026-05-08 15:46 -4.46472 55.35493 4267 ft 194 kts 72°
2026-05-08 15:47 -4.46085 55.36779 4165 ft 192 kts 81°
2026-05-08 15:47 -4.45904 55.38105 4004 ft 190 kts 89°
2026-05-08 15:47 -4.45927 55.39424 3782 ft 186 kts 97°
2026-05-08 15:47 -4.46137 55.40670 3553 ft 178 kts 106°
2026-05-08 15:48 -4.47089 55.42922 3202 ft 175 kts 123°
2026-05-08 15:48 -4.47815 55.43905 3025 ft 174 kts 132°
2026-05-08 15:48 -4.48682 55.44757 2878 ft 174 kts 141°
2026-05-08 15:49 -4.49667 55.45462 2731 ft 174 kts 149°
2026-05-08 15:49 -4.50732 55.45998 2568 ft 170 kts 158°
2026-05-08 15:49 -4.51479 55.46261 2458 ft 167 kts 163°
2026-05-08 15:49 -4.52989 55.46563 2256 ft 167 kts 173°
2026-05-08 15:50 -4.54144 55.46619 2209 ft 167 kts 180°
2026-05-08 15:50 -4.55301 55.46533 2199 ft 166 kts 186°
2026-05-08 15:50 -4.55338 55.46528 2199 ft 166 kts 186°
2026-05-08 15:50 -4.55493 55.46508 2197 ft 166 kts 186°
2026-05-08 15:51 -4.56249 55.46428 2195 ft 165 kts 183°
2026-05-08 15:51 -4.57399 55.46396 2197 ft 165 kts 179°
2026-05-08 15:51 -4.58549 55.46393 2069 ft 165 kts 179°
2026-05-08 15:51 -4.59695 55.46388 1892 ft 164 kts 180°
2026-05-08 15:52 -4.61208 55.46363 1644 ft 163 kts 176°
2026-05-08 15:52 -4.61968 55.46457 1515 ft 163 kts 167°
2026-05-08 15:52 -4.63050 55.46788 1302 ft 163 kts 155°
2026-05-08 15:52 -4.63994 55.47407 1052 ft 162 kts 138°
2026-05-08 15:53 -4.64742 55.48255 810 ft 162 kts 128°
2026-05-08 15:53 -4.65396 55.49155 588 ft 161 kts 126°
2026-05-08 15:53 -4.66011 55.50094 360 ft 160 kts 124°
2026-05-08 15:53 -4.66635 55.51018 118 ft 159 kts 125°
2026-05-08 15:54 -4.67240 55.51891 31 ft 131 kts 124°
2026-05-08 15:54 -4.67613 55.52435 30 ft 65 kts 124°
2026-05-08 15:54 -4.67796 55.52705 29 ft 33 kts 124°
2026-05-08 15:54 -4.67921 55.52885 29 ft 31 kts 124°
2026-05-08 15:55 -4.68039 55.53058 31 ft 23 kts 124°
2026-05-08 15:55 -4.68169 55.53245 30 ft 11 kts 125°
2026-05-08 15:55 -4.68184 55.53261 30 ft 1 kts 162°
2026-05-08 15:56 -4.68199 55.53258 30 ft 4 kts 198°
2026-05-08 15:56 -4.68242 55.53236 29 ft 9 kts 219°
2026-05-08 15:56 -4.68252 55.53182 29 ft 8 kts 307°
2026-05-08 15:56 -4.68191 55.53159 29 ft 11 kts 348°
2026-05-08 15:57 -4.68109 55.53136 31 ft 12 kts 332°
2026-05-08 15:57 -4.68043 55.53068 31 ft 15 kts 307°
2026-05-08 15:57 -4.67972 55.52972 30 ft 19 kts 306°
2026-05-08 15:57 -4.67894 55.52849 29 ft 22 kts 302°
2026-05-08 15:58 -4.67803 55.52711 29 ft 25 kts 304°
2026-05-08 15:58 -4.67700 55.52561 28 ft 27 kts 304°
2026-05-08 15:58 -4.67603 55.52421 30 ft 22 kts 304°
2026-05-08 15:58 -4.67511 55.52287 30 ft 24 kts 304°
2026-05-08 15:59 -4.67413 55.52144 31 ft 26 kts 304°
2026-05-08 15:59 -4.67306 55.51987 30 ft 28 kts 304°
2026-05-08 15:59 -4.67192 55.51821 31 ft 30 kts 304°
2026-05-08 15:59 -4.67083 55.51663 30 ft 25 kts 304°
2026-05-08 16:00 -4.66990 55.51527 30 ft 21 kts 304°
2026-05-08 16:00 -4.66932 55.51442 30 ft 11 kts 304°
2026-05-08 16:00 -4.66907 55.51380 30 ft 10 kts 259°
2026-05-08 16:00 -4.66958 55.51331 29 ft 11 kts 216°
2026-05-08 16:01 -4.67005 55.51279 29 ft 8 kts 256°
2026-05-08 16:01 -4.66997 55.51225 29 ft 5 kts 284°
2026-05-08 16:01 -4.67002 55.51199 29 ft 5 kts 245°
2026-05-08 16:01 -4.67024 55.51176 29 ft 1 kts 215°
2026-05-08 16:02 -4.67031 55.51171 29 ft 0 kts 214°